FALCON 9 R/B, 44480

Orbit data source: Space-Track

FALCON 9 R/B, 44480 is space debris in HEO originally from a launch on Tue, 06 Aug 2019 UTC launched from the Air Force Eastern Test Range (AFETR). Debris objects in space refer to the collection of defunct objects orbiting the Earth. Examples of debris include non-operational satellites, rocket bodies, and fragments generated from explosions, collisions, or faulty payload assembly.

Loading next visibility...
Identifier
44480, 2019-050B
Orbit
HEO
Country
Flag of USUS
Related business
Manufacturer
SpaceX
Mission
Spacecraft
Bus & Motor
F9ST2, Unknown motor
Mass
~4,000 kg wet, ~4,000 kg dry
Launch date (UTC)
2019-08-06 (6 years ago)
Launch vehicle
Unknown
Launch site
Air Force Eastern Test Range (AFETR)
Object type
Payload
Rocket body
Debris
Shape & HBR
Cyl, 7.8 m
Radar Cross Section
39.980 m², Large (>1 m²)

Expand to show TLE details & history
Last TLE update: 1 day ago

TLE from 1 day ago
0 FALCON 9 R/B
1 44480U 19050B   25259.65362159  .00031491  00000-0  11730-2 0  9997
2 44480  26.2136 350.5911 5933245  84.9434 336.2483  4.21378317 68345
Epoch: 2025-09-16T15:41Z
TLE epoch observation values (Epoch: 2025-09-16T15:41:12.905Z)
Latitude
-0.00003°
Longitude
119.45303°
Altitude
3,594.992 km
Speed
7.437 km/s
True Right ascension
23h 22m 23s
True Declination
0° 00' 00"
Sunlit
Object was in full shadow at epoch
Visualization orbit readout
Latitude
Unknown
Longitude
Unknown
Altitude
Unknown
Speed
Unknown
Apparent Right ascension
Unknown
Apparent Declination
Unknown
Sunlit
N/A
Visualization observer readout
Local Sidereal Time
17:41:31
Azimuth
Unknown
Elevation
Unknown
Doppler factor
Unknown
Orbital elements
Apogee altitude
19,426.069 km
Perigee altitude
208.053 km
Semi-major axis
16,195.198 km
Eccentricity
0.59332
Inclination
26.2136°
RAAN
350.5911°
Arg. of periapsis
84.9434°
True anomaly
275.02261°
Mean anomaly
336.2483°
Eccentric anomaly
310.33473°
Mean motion
1.05309 °/min
Orbital period
341.85 mins
BSTAR
0.001173
Loading maneuver chart data...
Computing Atmospheric mass density...
Loading historical data...
Loading historical data...
Loading historical data...
Loading historical data...
Loading historical data...
Loading historical data...
Loading historical data...
Other satellites on launch #50 in the year 2019 (2019-08-06 UTC)

Documentation

Showing up to 5 results
|